DW6267 Weather Reports


Display with metric or nautical units.
time (UTC)temp
F
wind
direction
speed
MPH
gust
MPH
rain 1hr
in
rain 24hr
in
rain mn
in
humidity
%
barometer
mb
20260507090349 52 295 4.0 0.0 0.00 0.00 0.00 58 1014.1
20260507080400 53 306 2.0 0.0 0.00 0.00 0.00 59 1013.7
20260507070340 53 283 3.0 0.0 0.00 0.00 0.00 61 1014.2
20260507060338 54 335 3.0 0.0 0.00 0.00 0.00 61 1014.5
20260507050340 54 23 1.0 0.0 0.00 0.00 0.00 61 1014.4
20260507040337 55 327 3.0 0.0 0.00 0.00 0.00 58 1014.3
20260507030335 57 224 2.0 0.0 0.00 0.00 0.00 57 1013.0
20260507020335 60 5 2.0 0.0 0.00 0.00 0.00 53 1013.1
20260507010348 64 341 3.0 0.0 0.00 0.00 0.00 44 1012.7
20260507000336 66 296 4.0 0.0 0.00 0.00 0.00 41 1013.2
20260506230358 68 304 3.0 0.0 0.00 0.00 0.00 39 1012.9
20260506220348 69 244 4.0 0.0 0.00 0.00 0.00 34 1012.8
20260506210341 69 326 4.0 0.0 0.00 0.00 0.00 38 1012.5
20260506200345 70 321 4.0 0.0 0.00 0.00 0.00 37 1012.5
20260506190346 69 311 4.0 0.0 0.00 0.00 0.00 45 1012.5
20260506180346 68 256 4.0 0.0 0.00 0.00 0.00 47 1012.6
20260506170348 68 300 4.0 0.0 0.00 0.00 0.00 49 1012.3
20260506160349 66 284 5.0 0.0 0.00 0.00 0.00 52 1013.6
20260506150331 60 17 2.0 0.0 0.00 0.00 0.00 61 1013.1
20260506140351 42 347 0.0 0.0 0.00 0.00 0.00 92 1013.4
20260506130340 41 346 0.0 0.0 0.00 0.00 0.00 93 1013.5
20260506120347 42 346 0.0 0.0 0.00 0.00 0.00 92 1012.5
20260506110346 43 17 0.0 0.0 0.00 0.00 0.00 90 1012.8
20260506100346 44 17 0.0 0.0 0.00 0.00 0.00 91 1012.5